Find Starlink 35868

NORAD ID: 66579 Int'l Des: 2025-268 Owner: SPXS Country: US Constellation: starlink operational
LEOCIRCULAR

当前视图

正在加载3D地球...

关于 Starlink 35868

正在加载描述...

即将过境

Passes for default location (London). Set your location on the main map for personalized predictions.

高度历史

Loading altitude history...

两行轨道根数

1 66579U 25268Y 26151.29170006 .00029301 00000-0 10697-2 0 9996
2 66579 43.0009 240.4809 0000221 254.9255 105.1572 15.27592241 30591
Epoch: May 31, 2026 • Age: 10 hours

当前状态

高度 484.9 km
速度 7.63 km/s
星下点 37.07°N, 138.71°W
发射日期 Nov 21, 2025
运行时间 0.5 years
类型 internet

技术详情

分类 Payload
质量 575.00 kg
干质量 530.00 kg
总质量 575.00 kg
长度 0.30 m
直径 4.10 m
跨度 29.00 m
形状 Box + pan
制造商 SPXS
平台类型 Starlink V2MO
阶段状态 In Orbit
所有者/国家 SPXS/US

Most Searched